Weather History for Yuma MCAS, AZ

Change the Weather History Date:

Thursday, April 10, 2014

  Actual Average Record
Temperature  
Mean Temperature 81 °F 72 °F  
Max Temperature 98 °F 85 °F 100 °F (1960)
Min Temperature 64 °F 58 °F 40 °F (1922)
Degree Days  
Heating Degree Days 0 1  
Month to date heating degree days 5 10  
Since 1 July heating degree days 370 683  
Cooling Degree Days 16 7  
Month to date cooling degree days 67 62  
Year to date cooling degree days 366 215  
Growing Degree Days 32 (Base 50)    
Moisture  
Dew Point 25 °F    
Average Humidity 17    
Maximum Humidity 29    
Minimum Humidity 4    
Precipitation  
Precipitation 0.00 in 0.01 in 0.08 in (1969)
Month to date precipitation 0.00 0.08  
Year to date precipitation 0.07 1.17  
Sea Level Pressure  
Sea Level Pressure 29.86 in    
Wind  
Wind Speed 4 mph (SSW)    
Max Wind Speed 10 mph    
Max Gust Speed 14 mph    
Visibility 10 miles    
Events      
T = Trace of Precipitation, MM = Missing Value Source: NWS Daily Summary

Daily Weather History Graph

Daily Weather History Graph

Search for Another Location

Airport:

Trip Planner

Search our weather history database for the weather conditions in past years. The results will help you decide how hot, cold, wet, or windy it might be!

Date:

Astronomy

Apr. 10, 2014 Rise Set
Actual Time 6:14 AM MST 7:04 PM MST
Civil Twilight 5:49 AM MST 7:30 PM MST
Nautical Twilight 5:20 AM MST 7:59 PM MST
Astronomical Twilight 4:49 AM MST 8:30 PM MST
Moon 3:05 PM MST (4/10) 3:25 AM MST (4/10)
Length of Visible Light 13h 40m
Length of Day
12h 49m
Waxing Gibbous, 80% of the Moon is Illuminated
Apr 10
Waxing Gibbous
Apr 15
Full
Apr 22
Last Quarter
Apr 28
New
May 6
First Quarter

Hourly Weather History & Observations

Time (MST) Temp. Dew Point Humidity Pressure Visibility Wind Dir Wind Speed Gust Speed Precip Events Conditions
12:57 AM 75.9 °F 24.1 °F 15% 29.88 in 10.0 mi Calm Calm - N/A   Clear
1:57 AM 73.0 °F 30.9 °F 21% 29.87 in 10.0 mi North 5.8 mph - N/A   Clear
2:57 AM 72.0 °F 32.0 °F 23% 29.87 in 10.0 mi Calm Calm - N/A   Clear
3:57 AM 70.0 °F 35.1 °F 28% 29.85 in 10.0 mi Calm Calm - N/A   Clear
4:57 AM 66.0 °F 33.1 °F 29% 29.86 in 10.0 mi Calm Calm - N/A   Clear
5:57 AM 66.9 °F 32.0 °F 27% 29.86 in 10.0 mi Calm Calm - N/A   Scattered Clouds
6:57 AM 69.1 °F 30.9 °F 24% 29.88 in 10.0 mi NE 4.6 mph - N/A   Scattered Clouds
7:57 AM 75.9 °F 26.1 °F 16% 29.91 in 10.0 mi Calm Calm - N/A   Mostly Cloudy
8:57 AM 80.1 °F 19.0 °F 10% 29.92 in 10.0 mi South 4.6 mph - N/A   Mostly Cloudy
9:57 AM 82.9 °F 26.1 °F 13% 29.92 in 10.0 mi South 5.8 mph - N/A   Mostly Cloudy
10:57 AM 87.1 °F 26.1 °F 11% 29.92 in 10.0 mi SSE 4.6 mph - N/A   Mostly Cloudy
11:57 AM 91.9 °F 23.0 °F 8% 29.90 in 10.0 mi South 5.8 mph - N/A   Mostly Cloudy
12:57 PM 93.9 °F 18.0 °F 6% 29.89 in 10.0 mi SSE 6.9 mph - N/A   Mostly Cloudy
1:57 PM 96.1 °F 14.0 °F 5% 29.86 in 10.0 mi SSW 5.8 mph - N/A   Mostly Cloudy
2:57 PM 98.6 °F 10.4 °F 4% 29.83 in 10.0 mi WNW 8.1 mph - N/A   Smoke
3:57 PM 97.0 °F 17.1 °F 5% 29.81 in 10.0 mi West 6.9 mph - N/A   Mostly Cloudy
4:57 PM 96.1 °F 17.1 °F 6% 29.79 in 10.0 mi Variable 4.6 mph - N/A   Mostly Cloudy
5:57 PM 93.9 °F 24.1 °F 8% 29.79 in 10.0 mi West 4.6 mph - N/A   Mostly Cloudy
6:57 PM 87.1 °F 39.9 °F 19% 29.80 in 10.0 mi WSW 6.9 mph - N/A   Mostly Cloudy
7:57 PM 84.0 °F 37.9 °F 19% 29.81 in 10.0 mi SSW 5.8 mph - N/A   Mostly Cloudy
8:57 PM 80.1 °F 27.0 °F 14% 29.83 in 10.0 mi SE 6.9 mph - N/A   Mostly Cloudy
9:57 PM 78.1 °F 23.0 °F 13% 29.83 in 10.0 mi South 5.8 mph - N/A   Mostly Cloudy
10:57 PM 77.0 °F 19.0 °F 11% 29.84 in 10.0 mi SSW 4.6 mph - N/A   Clear
11:57 PM 73.9 °F 25.0 °F 16% 29.84 in 10.0 mi Calm Calm - N/A   Clear